Weather History for Cape Race, NL

Change the Weather History Date:

Saturday, November 17, 2012

  Actual Average Record
Temperature  
Mean Temperature 37 °F -  
Max Temperature 45 °F - - ()
Min Temperature 29 °F - - ()
Degree Days  
Heating Degree Days 28    
Moisture  
Dew Point 38 °F    
Average Humidity 93    
Maximum Humidity 97    
Minimum Humidity 87    
Precipitation  
Precipitation 0.00 in - - ()
Sea Level Pressure  
Sea Level Pressure 30.15 in    
Wind  
Wind Speed 7 mph ()    
Max Wind Speed 15 mph    
Max Gust Speed 23 mph    
T = Trace of Precipitation, MM = Missing Value Source: Averaged Metar Reports

Daily Weather History Graph

Daily Weather History Graph

Search for Another Location

Airport:

Trip Planner

Search our weather history database for the weather conditions in past years. The results will help you decide how hot, cold, wet, or windy it might be!

Date:

Astronomy

Nov. 17, 2012 Rise Set
Actual Time 7:08 AM NST 4:26 PM NST
Civil Twilight 6:34 AM NST 4:59 PM NST
Nautical Twilight 5:58 AM NST 5:36 PM NST
Astronomical Twilight 5:22 AM NST 6:11 PM NST
Moon 10:48 AM NST (11/17) 8:29 PM NST (11/17)
Length of Visible Light 10h 24m
Length of Day
9h 18m
Waxing Crescent, 19% of the Moon is Illuminated
Nov 17
Waxing Crescent
Nov 20
First Quarter
Nov 28
Full
Dec 6
Last Quarter
Dec 13
New

Hourly Weather History & Observations

Time (NST) Temp. Windchill Dew Point Humidity Pressure Visibility Wind Dir Wind Speed Gust Speed Precip Events Conditions
12:30 AM 42.1 °F 36.1 °F 40.6 °F 95% 30.00 in - North 10.4 mph - N/A   Unknown
1:30 AM 42.3 °F 36.3 °F 40.5 °F 93% 30.01 in - North 10.4 mph - N/A   Unknown
2:30 AM 42 °F - 40 °F 92% 30.03 in - North 5.8 mph - -  
2:30 AM 41.9 °F 38.2 °F 40.5 °F 95% 30.03 in - North 5.8 mph - N/A   Unknown
3:30 AM 41.9 °F 37.5 °F 40.3 °F 94% 30.04 in - NNE 6.9 mph - N/A   Unknown
4:30 AM 41.4 °F - 39.9 °F 95% 30.05 in - North 2.3 mph - N/A   Unknown
5:30 AM 43 °F - 41 °F 88% 30.06 in - NNE 6.9 mph - -  
5:30 AM 42.8 °F 38.6 °F 40.6 °F 92% 30.06 in - NNE 6.9 mph - N/A   Unknown
6:30 AM 41.4 °F 38.4 °F 39.7 °F 94% 30.09 in - NNW 4.6 mph - N/A   Unknown
7:30 AM 41.7 °F 39.8 °F 40.3 °F 95% 30.09 in - NW 3.5 mph - N/A   Unknown
8:30 AM 43 °F - 41 °F 92% 30.12 in - West 3.5 mph - -  
8:30 AM 42.6 °F 40.9 °F 41.4 °F 95% 30.12 in - West 3.5 mph - N/A   Unknown
9:30 AM 43.7 °F - 41.4 °F 91% 30.13 in - WNW 2.3 mph - N/A   Unknown
10:30 AM 43.5 °F 41.9 °F 40.3 °F 88% 30.13 in - South 3.5 mph - N/A   Unknown
11:30 AM 43 °F - 41 °F 91% 30.12 in - SSW 4.6 mph - -  
11:30 AM 43.3 °F 40.7 °F 41.2 °F 92% 30.12 in - SSW 4.6 mph - N/A   Unknown
12:30 PM 44.4 °F 40.0 °F 43.2 °F 95% 30.12 in - West 8.1 mph - N/A   Unknown
1:30 PM 45.3 °F 41.1 °F 43.5 °F 93% 30.12 in - NNW 8.1 mph - N/A   Unknown
2:30 PM 42 °F - 41 °F 97% 30.14 in - ENE 5.8 mph - -  
2:30 PM 42.4 °F 38.8 °F 41.4 °F 96% 30.14 in - ENE 5.8 mph - N/A   Unknown
3:30 PM 42.8 °F 37.5 °F 41.7 °F 96% 30.17 in - North 9.2 mph - N/A   Unknown
4:30 PM 41.2 °F 34.1 °F 39.2 °F 93% 30.19 in - NNW 12.7 mph - N/A   Unknown
5:30 PM 38 °F - 36 °F 89% 30.22 in - North 15.0 mph - -  
5:30 PM 38.1 °F 29.5 °F 36.0 °F 92% 30.22 in - North 15.0 mph 23.0 mph N/A   Unknown
6:30 PM 37.2 °F 30.6 °F 34.7 °F 91% 30.25 in - North 9.2 mph - N/A   Unknown
7:30 PM 36.3 °F 28.4 °F 33.1 °F 88% 30.27 in - North 11.5 mph - N/A   Unknown
8:30 PM 33 °F - 31 °F 87% 30.29 in - North 10.4 mph - -  
8:30 PM 32.9 °F 24.7 °F 30.6 °F 91% 30.29 in - North 10.4 mph - N/A   Unknown
9:30 PM 31.5 °F 24.2 °F 30.4 °F 96% 30.30 in - North 8.1 mph - N/A   Unknown
10:30 PM 29.3 °F 21.5 °F 27.5 °F 93% 30.31 in - North 8.1 mph - N/A   Unknown
11:30 PM 30 °F - 28 °F 90% 30.33 in - NW 6.9 mph - -  
11:30 PM 29.8 °F 23.0 °F 28.2 °F 94% 30.33 in - NW 6.9 mph - N/A   Unknown